When you browse on this site, cookies collect data to enhance your experience and personalize the content and advertising you see.
Visit our Privacy Policy to learn more. By continuing to use the site, you agree to this use of cookies and data.
  • In Romania
  • List of Countries
  • For 7 days
  • Water Temperature
  • Weather Map
  • Weather Widgets
  • user-avatar
    Login

    Hourly Weather Leicester

    Today, 27 May, Wednesday

    Time Temperature Precipitation Wind Pressure Humidity
    00:00 +13°C° 0 mm 2 mps 771 mmHg 87%
    01:00 +13°C° 0 mm 2 mps 770 mmHg 83%
    02:00 +13°C° 0 mm 1 mps 770 mmHg 80%
    03:00 +13°C° 0 mm 1 mps 770 mmHg 76%
    04:00 +13°C° 0 mm 1 mps 770 mmHg 76%
    05:00 +13°C° 0 mm 1 mps 770 mmHg 75%
    06:00 +13°C° 0 mm 1 mps 771 mmHg 72%
    07:00 +15°C° 0 mm 1 mps 771 mmHg 69%
    08:00 +16°C° 0 mm 1 mps 771 mmHg 66%
    09:00 +18°C° 0 mm 1 mps 771 mmHg 63%
    10:00 +18°C° 0 mm 2 mps 771 mmHg 61%
    11:00 +19°C° 0 mm 2 mps 770 mmHg 58%
    12:00 +20°C° 0 mm 2 mps 770 mmHg 56%
    13:00 +20°C° 0 mm 2 mps 770 mmHg 56%
    14:00 +21°C° 0 mm 2 mps 770 mmHg 56%
    15:00 +21°C° 0 mm 2 mps 770 mmHg 55%
    16:00 +20°C° 0 mm 3 mps 770 mmHg 63%
    17:00 +19°C° 0 mm 3 mps 770 mmHg 70%
    18:00 +18°C° 0 mm 4 mps 770 mmHg 78%
    19:00 +17°C° 0 mm 4 mps 770 mmHg 82%
    20:00 +14°C° 0 mm 3 mps 771 mmHg 87%
    21:00 +12°C° 0 mm 3 mps 771 mmHg 92%
    22:00 +11°C° 0 mm 3 mps 771 mmHg 92%
    23:00 +12°C° 0 mm 2 mps 771 mmHg 93%

    Tomorrow, 28 May, Thursday

    Time Temperature Precipitation Wind Pressure Humidity
    00:00 +10°C° 0 mm 2 mps 771 mmHg 94%
    01:00 +10°C° 0 mm 2 mps 771 mmHg 94%
    02:00 +10°C° 0 mm 1 mps 771 mmHg 93%
    03:00 +10°C° 0 mm 1 mps 770 mmHg 93%
    04:00 +10°C° 0 mm 1 mps 770 mmHg 91%
    05:00 +11°C° 0 mm 1 mps 770 mmHg 89%
    06:00 +12°C° 0 mm 1 mps 770 mmHg 86%
    07:00 +13°C° 0 mm 2 mps 770 mmHg 80%
    08:00 +15°C° 0 mm 2 mps 770 mmHg 74%
    09:00 +16°C° 0 mm 2 mps 770 mmHg 68%
    10:00 +17°C° 0 mm 2 mps 770 mmHg 65%
    11:00 +18°C° 0 mm 2 mps 769 mmHg 63%
    12:00 +19°C° 0 mm 2 mps 769 mmHg 60%
    13:00 +19°C° 0 mm 2 mps 769 mmHg 60%
    14:00 +20°C° 0 mm 2 mps 768 mmHg 59%
    15:00 +20°C° 0 mm 2 mps 768 mmHg 59%
    16:00 +20°C° 0 mm 2 mps 767 mmHg 63%
    17:00 +19°C° 0 mm 2 mps 767 mmHg 67%
    18:00 +19°C° 0 mm 2 mps 767 mmHg 71%
    19:00 +17°C° 0 mm 2 mps 767 mmHg 75%
    20:00 +15°C° 0 mm 2 mps 767 mmHg 80%
    21:00 +13°C° 0 mm 2 mps 767 mmHg 84%
    22:00 +13°C° 0 mm 2 mps 767 mmHg 83%
    23:00 +12°C° 0 mm 2 mps 767 mmHg 81%

    Day after tomorrow, 29 May, Friday

    Time Temperature Precipitation Wind Pressure Humidity
    00:00 +10°C° 0 mm 2 mps 767 mmHg 80%
    01:00 +10°C° 0 mm 2 mps 766 mmHg 76%
    02:00 +9°C° 0 mm 2 mps 766 mmHg 72%
    03:00 +10°C° 0 mm 1 mps 766 mmHg 68%
    04:00 +10°C° 0 mm 1 mps 766 mmHg 69%
    05:00 +11°C° 0 mm 1 mps 766 mmHg 69%
    06:00 +12°C° 0 mm 1 mps 766 mmHg 69%
    07:00 +14°C° 0 mm 2 mps 766 mmHg 66%
    08:00 +15°C° 0 mm 2 mps 766 mmHg 63%
    09:00 +17°C° 0 mm 3 mps 766 mmHg 61%
    10:00 +18°C° 0 mm 3 mps 765 mmHg 60%
    11:00 +19°C° 0 mm 3 mps 765 mmHg 60%
    12:00 +20°C° 0 mm 3 mps 765 mmHg 60%
    13:00 +20°C° 0 mm 3 mps 764 mmHg 62%
    14:00 +20°C° 0 mm 3 mps 764 mmHg 63%
    15:00 +20°C° 0 mm 3 mps 764 mmHg 65%
    16:00 +20°C° 0 mm 3 mps 763 mmHg 68%
    17:00 +19°C° 0 mm 3 mps 763 mmHg 72%
    18:00 +19°C° 0 mm 3 mps 763 mmHg 76%
    19:00 +17°C° 0 mm 3 mps 763 mmHg 81%
    20:00 +14°C° 0 mm 3 mps 763 mmHg 86%
    21:00 +12°C° 0 mm 3 mps 763 mmHg 91%
    22:00 +11°C° 0 mm 3 mps 763 mmHg 90%
    23:00 +10°C° 0 mm 2 mps 763 mmHg 88%

    30 May, Saturday

    Time Temperature Precipitation Wind Pressure Humidity
    00:00 +9°C° 0 mm 2 mps 763 mmHg 87%
    01:00 +8°C° 0 mm 2 mps 763 mmHg 86%
    02:00 +7°C° 0 mm 2 mps 763 mmHg 86%
    03:00 +6°C° 0 mm 2 mps 763 mmHg 85%
    04:00 +7°C° 0 mm 2 mps 763 mmHg 83%
    05:00 +8°C° 0 mm 2 mps 763 mmHg 81%
    06:00 +9°C° 0 mm 2 mps 763 mmHg 80%
    07:00 +12°C° 0 mm 2 mps 763 mmHg 76%
    08:00 +13°C° 0 mm 3 mps 763 mmHg 72%
    09:00 +16°C° 0 mm 3 mps 763 mmHg 68%
    10:00 +18°C° 0 mm 3 mps 762 mmHg 65%
    11:00 +19°C° 0 mm 3 mps 762 mmHg 63%
    12:00 +20°C° 0 mm 3 mps 762 mmHg 61%
    13:00 +20°C° 0 mm 3 mps 762 mmHg 62%
    14:00 +20°C° 0 mm 3 mps 762 mmHg 64%
    15:00 +20°C° 0 mm 3 mps 761 mmHg 66%
    16:00 +20°C° 0 mm 3 mps 761 mmHg 70%
    17:00 +19°C° 0 mm 3 mps 761 mmHg 73%
    18:00 +19°C° 0 mm 3 mps 761 mmHg 77%
    19:00 +17°C° 0 mm 3 mps 761 mmHg 81%
    20:00 +14°C° 0 mm 3 mps 762 mmHg 86%
    21:00 +12°C° 0 mm 3 mps 762 mmHg 90%
    22:00 +11°C° 0 mm 3 mps 762 mmHg 91%
    23:00 +10°C° 0 mm 2 mps 762 mmHg 91%

    31 May, Sunday

    Time Temperature Precipitation Wind Pressure Humidity
    00:00 +9°C° 0 mm 2 mps 762 mmHg 92%
    01:00 +9°C° 0 mm 2 mps 762 mmHg 92%
    02:00 +8°C° 0 mm 2 mps 762 mmHg 92%
    03:00 +8°C° 0 mm 2 mps 762 mmHg 92%
    04:00 +9°C° 0 mm 2 mps 762 mmHg 90%
    05:00 +10°C° 0 mm 2 mps 762 mmHg 89%
    06:00 +10°C° 0 mm 2 mps 762 mmHg 88%
    07:00 +12°C° 0 mm 3 mps 762 mmHg 83%
    08:00 +14°C° 0 mm 3 mps 762 mmHg 78%
    09:00 +17°C° 0 mm 3 mps 762 mmHg 74%
    10:00 +18°C° 0 mm 3 mps 762 mmHg 69%
    11:00 +19°C° 0 mm 3 mps 761 mmHg 64%
    12:00 +20°C° 0 mm 3 mps 761 mmHg 59%
    13:00 +21°C° 0.1 mm 3 mps 761 mmHg 61%
    14:00 +21°C° 0.1 mm 3 mps 761 mmHg 63%
    15:00 +21°C° 0.1 mm 3 mps 761 mmHg 65%
    16:00 +20°C° 0.2 mm 3 mps 760 mmHg 71%
    17:00 +19°C° 0.2 mm 3 mps 760 mmHg 77%
    18:00 +18°C° 0.2 mm 3 mps 760 mmHg 83%
    19:00 +16°C° 0.1 mm 3 mps 760 mmHg 85%
    20:00 +14°C° 0.1 mm 3 mps 760 mmHg 88%
    21:00 +13°C° 0.1 mm 3 mps 760 mmHg 91%
    22:00 +12°C° 0 mm 3 mps 760 mmHg 91%
    23:00 +12°C° 0 mm 2 mps 760 mmHg 91%

    1 June, Monday

    Time Temperature Precipitation Wind Pressure Humidity
    00:00 +10°C° 0 mm 2 mps 760 mmHg 91%
    01:00 +9°C° 0 mm 2 mps 760 mmHg 90%
    02:00 +9°C° 0 mm 2 mps 760 mmHg 90%
    03:00 +9°C° 0 mm 1 mps 759 mmHg 89%
    04:00 +9°C° 0 mm 2 mps 759 mmHg 88%
    05:00 +10°C° 0 mm 2 mps 759 mmHg 88%
    06:00 +12°C° 0 mm 2 mps 759 mmHg 87%
    07:00 +13°C° 0 mm 3 mps 759 mmHg 81%
    08:00 +14°C° 0 mm 3 mps 759 mmHg 76%
    09:00 +17°C° 0 mm 3 mps 758 mmHg 70%
    10:00 +18°C° 0 mm 3 mps 758 mmHg 66%
    11:00 +19°C° 0 mm 4 mps 758 mmHg 63%
    12:00 +20°C° 0 mm 4 mps 758 mmHg 60%
    13:00 +20°C° 0 mm 4 mps 757 mmHg 60%
    14:00 +20°C° 0 mm 4 mps 757 mmHg 61%
    15:00 +21°C° 0 mm 4 mps 756 mmHg 61%
    16:00 +20°C° 0 mm 4 mps 756 mmHg 66%
    17:00 +19°C° 0 mm 4 mps 756 mmHg 70%
    18:00 +19°C° 0 mm 4 mps 755 mmHg 75%
    19:00 +17°C° 0 mm 4 mps 756 mmHg 79%
    20:00 +14°C° 0 mm 4 mps 756 mmHg 84%
    21:00 +12°C° 0 mm 4 mps 756 mmHg 89%
    22:00 +11°C° 0 mm 4 mps 756 mmHg 90%
    23:00 +10°C° 0 mm 3 mps 756 mmHg 92%
    Show more